FW1304 Weather Reports


Display with metric or nautical units.
time (UTC)temp
F
wind
direction
speed
MPH
gust
MPH
rain 1hr
in
rain 24hr
in
rain mn
in
humidity
%
barometer
mb
20260509120859 48 297 0.0 1.0 0.00 0.03 0.03 88 1002.7
20260509120324 48 318 0.0 1.0 0.00 0.03 0.03 88 1002.7
20260509115819 48 290 0.0 2.0 0.00 0.03 0.03 88 1002.7
20260509115314 48 312 0.0 2.0 0.00 0.03 0.03 88 1002.6
20260509114828 48 300 0.0 1.0 0.00 0.03 0.03 88 1002.6
20260509114334 48 13 0.0 1.0 0.00 0.03 0.03 88 1002.4
20260509113821 48 329 0.0 1.0 0.00 0.03 0.03 88 1002.2
20260509113318 48 319 0.0 1.0 0.00 0.03 0.03 88 1002.1
20260509112823 48 290 0.0 0.0 0.00 0.03 0.03 88 1002.0
20260509112330 48 344 0.0 0.0 0.00 0.03 0.03 88 1001.9
20260509111827 48 292 0.0 0.0 0.00 0.03 0.03 88 1001.8
20260509111327 48 288 0.0 0.0 0.00 0.03 0.03 88 1001.8
20260509110844 48 285 0.0 0.0 0.00 0.03 0.03 88 1001.6
20260509110330 49 301 0.0 0.0 0.01 0.03 0.03 88 1001.4
20260509105901 49 296 0.0 0.0 0.01 0.03 0.03 88 1001.3
20260509105327 49 294 0.0 0.0 0.01 0.03 0.03 88 1001.1
20260509104824 49 298 0.0 0.0 0.01 0.03 0.03 88 1001.0
20260509104326 49 304 0.0 0.0 0.01 0.03 0.03 88 1001.0
20260509103813 49 313 0.0 0.0 0.01 0.03 0.03 87 1001.1
20260509103329 49 308 0.0 0.0 0.01 0.03 0.03 87 1001.0
20260509102825 49 313 0.0 0.0 0.01 0.03 0.03 87 1001.0
20260509102321 49 313 0.0 0.0 0.02 0.03 0.03 87 1000.9
20260509101828 49 313 0.0 0.0 0.02 0.03 0.03 86 1000.7
20260509101332 49 313 0.0 0.0 0.02 0.03 0.03 86 1000.6
20260509100828 49 313 0.0 0.0 0.02 0.03 0.03 86 1000.5
20260509100315 49 313 0.0 0.0 0.02 0.02 0.02 85 1000.7
20260509095816 49 313 0.0 0.0 0.02 0.02 0.02 85 1000.5
20260509095313 49 313 0.0 0.0 0.02 0.02 0.02 85 1000.6
20260509094846 49 313 0.0 0.0 0.02 0.02 0.02 84 1000.7
20260509094323 50 313 0.0 0.0 0.02 0.02 0.02 84 1000.7
20260509093828 50 313 0.0 0.0 0.02 0.02 0.02 83 1000.5
20260509093344 50 311 0.0 0.0 0.02 0.02 0.02 82 1000.3
20260509092847 50 311 0.0 0.0 0.02 0.02 0.02 82 1000.3
20260509092332 50 311 0.0 0.0 0.01 0.01 0.01 81 1000.7
20260509091828 51 14 0.0 0.0 0.01 0.01 0.01 79 1000.9
20260509091326 51 325 0.0 1.0 0.01 0.01 0.01 78 1001.0
20260509090813 52 331 0.0 2.0 0.01 0.01 0.01 75 1001.1
20260509090329 52 338 0.0 2.0 0.00 0.00 0.00 73 1001.2
20260509085831 52 360 0.0 1.0 0.00 0.00 0.00 71 1001.1
20260509085326 52 351 0.0 0.0 0.00 0.00 0.00 70 1000.9
20260509084814 52 314 0.0 0.0 0.00 0.00 0.00 70 1000.7
20260509084406 53 323 0.0 2.0 0.00 0.00 0.00 69 1000.6
20260509083822 53 5 0.0 2.0 0.00 0.00 0.00 69 1000.6
20260509083320 53 11 0.0 2.0 0.00 0.00 0.00 68 1000.5
20260509082816 53 360 0.0 4.0 0.00 0.00 0.00 67 1000.6
20260509082333 53 294 0.0 4.0 0.00 0.00 0.00 67 1000.6
20260509081821 53 335 0.0 2.0 0.00 0.00 0.00 66 1000.6
20260509081347 54 5 0.0 2.0 0.00 0.00 0.00 65 1000.6
20260509080813 54 347 0.0 4.0 0.00 0.00 0.00 63 1000.7
20260509080349 54 29 0.0 4.0 0.00 0.00 0.00 62 1000.7
20260509075830 54 348 0.0 4.0 0.00 0.00 0.00 60 1000.5
20260509075326 54 350 0.0 4.0 0.00 0.00 0.00 58 1000.6
20260509074842 54 324 0.0 4.0 0.00 0.00 0.00 56 1000.4
20260509074347 54 304 0.0 2.0 0.00 0.00 0.00 53 1000.4
20260509073815 54 313 0.0 2.0 0.00 0.00 0.00 51 1000.5
20260509073331 54 42 0.0 2.0 0.00 0.00 0.00 50 1000.5
20260509072814 54 307 0.0 4.0 0.00 0.00 0.00 49 1000.3
20260509072321 53 333 0.0 5.0 0.00 0.00 0.00 49 1000.2
20260509071818 52 331 1.0 5.0 0.00 0.00 0.00 51 1000.3
20260509071316 51 295 0.0 2.0 0.00 0.00 0.00 52 1000.3
20260509070853 51 290 0.0 0.0 0.00 0.00 0.00 53 1000.2
20260509070319 51 275 0.0 0.0 0.00 0.00 0.00 53 1000.1
20260509065844 51 263 0.0 0.0 0.00 0.00 0.00 54 1000.1
20260509065340 51 260 0.0 0.0 0.00 0.00 0.00 54 1000.2
20260509064828 51 229 0.0 0.0 0.00 0.00 0.00 54 1000.2
20260509064330 50 229 0.0 0.0 0.00 0.00 0.00 54 1000.1
20260509063847 50 229 0.0 0.0 0.00 0.00 0.00 53 1000.1
20260509063402 50 229 0.0 0.0 0.00 0.00 0.00 52 1000.1
20260509062823 50 229 0.0 0.0 0.00 0.00 0.00 53 1000.1
20260509062330 50 229 0.0 0.0 0.00 0.00 0.00 54 1000.0
20260509061827 51 229 0.0 0.0 0.00 0.00 0.00 54 999.9
20260509061332 51 229 0.0 0.0 0.00 0.00 0.00 53 999.8
20260509060818 51 229 0.0 0.0 0.00 0.00 0.00 53 1000.0
20260509060317 51 229 0.0 0.0 0.00 0.00 0.00 51 999.9
20260509055815 51 229 0.0 0.0 0.00 0.00 0.00 53 999.9
20260509055319 52 229 0.0 0.0 0.00 0.00 0.00 52 999.9
20260509054832 52 228 0.0 0.0 0.00 0.00 0.00 52 999.6
20260509054315 53 229 0.0 0.0 0.00 0.00 0.00 47 999.6
20260509053822 53 229 0.0 0.0 0.00 0.00 0.00 47 999.7
20260509053318 53 229 0.0 0.0 0.00 0.00 0.00 46 999.8
20260509052820 54 231 0.0 0.0 0.00 0.00 0.00 41 1000.0
20260509052337 54 231 0.0 0.0 0.00 0.00 0.00 41 1000.1
20260509051825 54 237 0.0 0.0 0.00 0.00 0.00 43 1000.1
20260509051318 54 238 0.0 0.0 0.00 0.00 0.00 38 1000.2
20260509050814 54 241 0.0 0.0 0.00 0.00 0.00 38 1000.2
20260509050350 54 245 0.0 0.0 0.00 0.00 0.00 38 1000.4
20260509045831 54 248 0.0 0.0 0.00 0.00 0.00 38 1000.5
20260509045318 54 241 0.0 0.0 0.00 0.00 0.00 38 1000.3
20260509044834 55 233 0.0 0.0 0.00 0.00 0.00 39 1000.4
20260509044317 55 236 0.0 0.0 0.00 0.00 0.00 38 1000.2
20260509043825 55 252 0.0 0.0 0.00 0.00 0.00 40 1000.6
20260509043322 55 273 0.0 0.0 0.00 0.00 0.00 38 1000.6
20260509042821 55 275 0.0 0.0 0.00 0.00 0.00 36 1000.7
20260509042333 56 277 0.0 0.0 0.00 0.00 0.00 36 1000.7
20260509041821 56 277 0.0 0.0 0.00 0.00 0.00 35 1000.7
20260509041317 56 281 0.0 0.0 0.00 0.00 0.00 35 1000.8
20260509040813 57 277 0.0 0.0 0.00 0.00 0.00 35 1000.7
20260509040322 57 281 0.0 0.0 0.00 0.00 0.00 35 1000.8
20260509035833 57 281 0.0 0.0 0.00 0.00 0.00 34 1000.8
20260509035319 58 286 0.0 0.0 0.00 0.00 0.00 34 1001.0
20260509034836 58 286 0.0 0.0 0.00 0.00 0.00 34 1001.1
20260509034318 58 300 0.0 0.0 0.00 0.00 0.00 33 1001.1
20260509033825 58 296 0.0 0.0 0.00 0.00 0.00 34 1001.1
20260509033322 58 293 0.0 0.0 0.00 0.00 0.00 33 1001.1
20260509032824 58 304 0.0 0.0 0.00 0.00 0.00 33 1001.0
20260509032340 59 294 0.0 0.0 0.00 0.00 0.00 32 1001.0
20260509031847 59 293 0.0 0.0 0.00 0.00 0.00 32 1001.0
20260509031326 59 288 0.0 0.0 0.00 0.00 0.00 32 1000.9
20260509030823 60 327 0.0 0.0 0.00 0.00 0.00 32 1000.8
20260509030339 60 304 0.0 0.0 0.00 0.00 0.00 31 1000.9
20260509025838 60 308 0.0 0.0 0.00 0.00 0.00 31 1000.9
20260509025333 60 306 0.0 0.0 0.00 0.00 0.00 30 1000.8
20260509024821 61 297 0.0 1.0 0.00 0.00 0.00 30 1000.7
20260509024323 61 355 0.0 1.0 0.00 0.00 0.00 30 1000.7
20260509023841 61 313 0.0 4.0 0.00 0.00 0.00 29 1000.6
20260509023327 61 302 0.0 4.0 0.00 0.00 0.00 29 1000.7
20260509022830 62 304 0.0 4.0 0.00 0.00 0.00 29 1000.7
20260509022347 62 292 0.0 5.0 0.00 0.00 0.00 29 1000.6
20260509021842 62 323 0.0 5.0 0.00 0.00 0.00 29 1000.5
20260509021343 62 321 0.0 5.0 0.00 0.00 0.00 29 1000.5
20260509020828 63 313 0.0 4.0 0.00 0.00 0.00 29 1000.4
20260509020315 63 303 1.0 7.0 0.00 0.00 0.00 29 1000.3
20260509015826 63 338 0.0 7.0 0.00 0.00 0.00 29 1000.2
20260509015342 64 278 1.0 9.0 0.00 0.00 0.00 29 1000.2
20260509014830 64 331 1.0 9.0 0.00 0.00 0.00 30 1000.0
20260509014324 64 348 1.0 6.0 0.00 0.00 0.00 30 999.9
20260509013820 65 288 1.0 6.0 0.00 0.00 0.00 30 999.9
20260509013332 65 324 1.0 6.0 0.00 0.00 0.00 30 999.7
20260509012835 66 279 0.0 6.0 0.00 0.00 0.00 29 999.6
20260509012324 66 315 0.0 6.0 0.00 0.00 0.00 29 999.5
20260509011820 66 307 1.0 5.0 0.00 0.00 0.00 29 999.4
20260509011324 67 327 1.0 7.0 0.00 0.00 0.00 28 999.3
20260509010831 67 301 0.0 7.0 0.00 0.00 0.00 28 999.2
20260509010327 67 275 0.0 4.0 0.00 0.00 0.00 27 999.2
20260509005832 68 300 0.0 5.0 0.00 0.00 0.00 26 999.0
20260509005321 68 302 0.0 6.0 0.00 0.00 0.00 26 999.0
20260509004817 68 272 1.0 4.0 0.00 0.00 0.00 25 998.9
20260509004321 68 288 1.0 4.0 0.00 0.00 0.00 25 998.9
20260509003828 69 336 0.0 6.0 0.00 0.00 0.00 24 998.9
20260509003324 69 331 1.0 5.0 0.00 0.00 0.00 24 998.9
20260509002848 69 292 0.0 5.0 0.00 0.00 0.00 24 998.8
20260509002344 69 298 1.0 6.0 0.00 0.00 0.00 24 998.7
20260509001840 69 281 1.0 6.0 0.00 0.00 0.00 23 998.8
20260509001345 70 293 0.0 5.0 0.00 0.00 0.00 23 998.8
20260509000840 70 255 1.0 6.0 0.00 0.00 0.00 24 998.8
20260509000326 70 273 0.0 6.0 0.00 0.00 0.00 23 998.8
20260508235846 70 261 0.0 7.0 0.00 0.00 0.00 24 998.9
20260508235341 70 5 0.0 7.0 0.00 0.00 0.00 23 998.8
20260508234836 70 337 0.0 4.0 0.00 0.00 0.00 24 998.8
20260508234321 70 321 0.0 5.0 0.00 0.00 0.00 23 998.8
20260508233827 70 288 1.0 5.0 0.00 0.00 0.00 23 998.9
20260508233325 71 300 0.0 4.0 0.00 0.00 0.00 23 998.9
20260508232826 71 325 1.0 4.0 0.00 0.00 0.00 22 998.9
20260508232314 71 300 0.0 4.0 0.00 0.00 0.00 24 998.9
20260508231850 70 311 0.0 4.0 0.00 0.00 0.00 23 998.9
20260508231333 70 338 0.0 6.0 0.00 0.00 0.00 23 999.0
20260508230829 71 17 1.0 6.0 0.00 0.00 0.00 23 999.0
20260508230316 71 311 0.0 2.0 0.00 0.00 0.00 23 999.0
20260508225819 71 273 0.0 4.0 0.00 0.00 0.00 23 998.9
20260508225335 71 279 0.0 4.0 0.00 0.00 0.00 23 998.9
20260508224824 71 324 0.0 6.0 0.00 0.00 0.00 24 998.9
20260508224321 71 295 0.0 6.0 0.00 0.00 0.00 24 998.9
20260508223817 70 282 0.0 2.0 0.00 0.00 0.00 25 998.9
20260508223335 70 280 0.0 5.0 0.00 0.00 0.00 25 999.0
20260508222831 70 246 1.0 7.0 0.00 0.00 0.00 24 999.0
20260508222319 71 258 0.0 5.0 0.00 0.00 0.00 24 999.0
20260508221836 71 243 0.0 4.0 0.00 0.00 0.00 24 999.1
20260508221340 71 275 0.0 4.0 0.00 0.00 0.00 25 999.1
20260508220827 70 304 0.0 2.0 0.00 0.00 0.00 26 999.2
20260508220323 70 269 0.0 4.0 0.00 0.00 0.00 25 999.2
20260508215819 70 302 0.0 4.0 0.00 0.00 0.00 24 999.3
20260508215336 70 276 1.0 5.0 0.00 0.00 0.00 24 999.4
20260508214831 70 306 0.0 5.0 0.00 0.00 0.00 24 999.4
20260508214335 70 271 0.0 4.0 0.00 0.00 0.00 24 999.5
20260508213823 70 280 1.0 3.0 0.00 0.00 0.00 25 999.5
20260508213339 70 329 0.0 5.0 0.00 0.00 0.00 24 999.5
20260508212842 71 267 0.0 5.0 0.00 0.00 0.00 24 999.5
20260508212337 71 284 1.0 6.0 0.00 0.00 0.00 24 999.6
20260508211824 71 278 1.0 6.0 0.00 0.00 0.00 24 999.6
20260508211329 70 285 1.0 5.0 0.00 0.00 0.00 24 999.7
20260508210814 70 343 0.0 5.0 0.00 0.00 0.00 23 999.8
20260508210331 70 305 0.0 5.0 0.00 0.00 0.00 24 999.9
20260508205859 70 233 1.0 4.0 0.00 0.00 0.00 24 999.9
20260508205324 70 288 0.0 8.0 0.00 0.00 0.00 23 1000.1
20260508204840 70 286 2.0 8.0 0.00 0.00 0.00 23 1000.1
20260508204314 70 286 0.0 4.0 0.00 0.00 0.00 24 1000.2
20260508203851 70 298 1.0 7.0 0.00 0.00 0.00 23 1000.3
20260508203327 70 293 0.0 7.0 0.00 0.00 0.00 24 1000.6
20260508202830 70 277 1.0 5.0 0.00 0.00 0.00 23 1000.3
20260508202318 70 227 1.0 5.0 0.00 0.00 0.00 23 1000.4
20260508201815 69 292 0.0 4.0 0.00 0.00 0.00 24 1000.6
20260508201318 69 266 1.0 4.0 0.00 0.00 0.00 24 1000.6
20260508200825 69 242 0.0 5.0 0.00 0.00 0.00 24 1000.8
20260508200322 69 268 1.0 5.0 0.00 0.00 0.00 23 1000.8
20260508195843 69 257 1.0 4.0 0.00 0.00 0.00 25 1000.9
20260508195319 69 288 0.0 5.0 0.00 0.00 0.00 24 1001.0
20260508194827 69 286 1.0 5.0 0.00 0.00 0.00 24 1001.1
20260508194330 69 282 1.0 6.0 0.00 0.00 0.00 24 1001.2
20260508193827 69 261 1.0 6.0 0.00 0.00 0.00 24 1001.2
20260508193314 69 284 1.0 6.0 0.00 0.00 0.00 25 1001.3
20260508192817 69 257 1.0 6.0 0.00 0.00 0.00 24 1001.3
20260508192351 68 277 0.0 5.0 0.00 0.00 0.00 24 1001.4
20260508191826 68 278 1.0 5.0 0.00 0.00 0.00 27 1001.5
20260508191329 67 257 1.0 6.0 0.00 0.00 0.00 24 1001.5
20260508190816 68 263 1.0 6.0 0.00 0.00 0.00 24 1001.5
20260508190332 68 279 0.0 4.0 0.00 0.00 0.00 24 1001.7
20260508185814 68 241 1.0 4.0 0.00 0.00 0.00 25 1001.8
20260508185323 68 254 1.0 4.0 0.00 0.00 0.00 26 1001.8
20260508184821 68 194 0.0 2.0 0.00 0.00 0.00 26 1001.9
20260508184320 67 306 0.0 2.0 0.00 0.00 0.00 27 1001.9
20260508183856 66 259 0.0 1.0 0.00 0.00 0.00 27 1002.0
20260508183324 66 277 0.0 4.0 0.00 0.00 0.00 25 1002.2
20260508182820 66 299 0.0 4.0 0.00 0.00 0.00 25 1002.2
20260508182316 66 267 0.0 4.0 0.00 0.00 0.00 25 1002.2
20260508181833 66 333 0.0 7.0 0.00 0.00 0.00 26 1002.3
20260508181336 67 232 0.0 4.0 0.00 0.00 0.00 27 1002.3
20260508180845 67 313 0.0 4.0 0.00 0.00 0.00 26 1002.4
20260508180320 67 311 0.0 2.0 0.00 0.00 0.00 26 1002.4
20260508175822 66 223 0.0 5.0 0.00 0.00 0.00 26 1002.5
20260508175336 66 289 0.0 5.0 0.00 0.00 0.00 27 1002.7
20260508174823 65 330 0.0 4.0 0.00 0.00 0.00 27 1002.7
20260508174320 65 39 0.0 4.0 0.00 0.00 0.00 28 1002.8
20260508173838 66 321 0.0 4.0 0.00 0.00 0.00 27 1002.9
20260508173323 65 335 0.0 1.0 0.00 0.00 0.00 29 1003.0
20260508172827 65 244 0.0 1.0 0.00 0.00 0.00 28 1003.1
20260508172343 65 318 0.0 2.0 0.00 0.00 0.00 27 1003.2
20260508171839 64 329 0.0 2.0 0.00 0.00 0.00 27 1003.3
20260508171341 64 349 0.0 1.0 0.00 0.00 0.00 27 1003.4
20260508170836 64 5 0.0 8.0 0.00 0.00 0.00 29 1003.5
20260508170324 64 276 0.0 8.0 0.00 0.00 0.00 28 1003.5
20260508165819 64 264 0.0 1.0 0.00 0.00 0.00 29 1003.5
20260508165316 64 323 0.0 1.0 0.00 0.00 0.00 28 1003.6
20260508164831 64 257 0.0 2.0 0.00 0.00 0.00 30 1003.6
20260508164335 63 286 0.0 2.0 0.00 0.00 0.00 29 1003.7
20260508163824 63 288 0.0 1.0 0.00 0.00 0.00 31 1003.8
20260508163341 63 277 0.0 2.0 0.00 0.00 0.00 30 1003.8
20260508162824 62 266 0.0 2.0 0.00 0.00 0.00 29 1003.8
20260508162328 62 250 0.0 1.0 0.00 0.00 0.00 31 1003.8
20260508161844 62 271 0.0 0.0 0.00 0.00 0.00 31 1003.8
20260508161347 61 252 0.0 2.0 0.00 0.00 0.00 35 1003.9
20260508160842 61 242 0.0 1.0 0.00 0.00 0.00 34 1004.0
20260508160338 60 298 0.0 0.0 0.00 0.00 0.00 38 1004.1
20260508155819 60 249 0.0 1.0 0.00 0.00 0.00 37 1004.1
20260508155336 59 296 0.0 1.0 0.00 0.00 0.00 39 1004.1
20260508154824 58 220 0.0 1.0 0.00 0.00 0.00 39 1004.1
20260508154319 58 272 0.0 0.0 0.00 0.00 0.00 40 1004.2
20260508153816 57 225 0.0 0.0 0.00 0.00 0.00 41 1004.2
20260508153323 56 257 0.0 0.0 0.00 0.00 0.00 42 1004.4
20260508152824 56 246 0.0 0.0 0.00 0.00 0.00 44 1004.5
20260508152321 56 209 0.0 0.0 0.00 0.00 0.00 42 1004.5
20260508151838 56 207 0.0 0.0 0.00 0.00 0.00 43 1004.5
20260508151319 55 225 0.0 1.0 0.00 0.00 0.00 42 1004.6
20260508150819 55 211 0.0 4.0 0.00 0.00 0.00 43 1004.6
20260508150316 55 225 0.0 4.0 0.00 0.00 0.00 42 1004.7
20260508145817 55 249 0.0 7.0 0.00 0.00 0.00 42 1004.8
20260508145323 54 213 0.0 7.0 0.00 0.00 0.00 44 1004.9
20260508144819 54 211 0.0 0.0 0.00 0.00 0.00 44 1004.8
20260508144316 54 219 0.0 1.0 0.00 0.00 0.00 43 1004.9
20260508143834 53 213 0.0 1.0 0.00 0.00 0.00 42 1005.0
20260508143322 53 229 0.0 0.0 0.00 0.00 0.00 44 1005.2
20260508142854 53 262 0.0 0.0 0.00 0.00 0.00 44 1005.2
20260508142320 52 252 0.0 0.0 0.00 0.00 0.00 46 1005.3
20260508141837 52 227 0.0 0.0 0.00 0.00 0.00 49 1005.0
20260508141340 51 307 0.0 0.0 0.00 0.00 0.00 47 1005.1
20260508140836 51 227 0.0 0.0 0.00 0.00 0.00 49 1005.1
20260508140323 50 203 0.0 0.0 0.00 0.00 0.00 48 1005.2
20260508135825 50 232 0.0 0.0 0.00 0.00 0.00 47 1005.3
20260508135342 50 249 0.0 0.0 0.00 0.00 0.00 48 1005.3
20260508134829 50 213 0.0 0.0 0.00 0.00 0.00 49 1005.4
20260508134348 50 221 0.0 0.0 0.00 0.00 0.00 50 1005.5
20260508133824 49 222 0.0 0.0 0.00 0.00 0.00 50 1005.6
20260508133340 49 222 0.0 0.0 0.00 0.00 0.00 50 1005.5
20260508132814 49 240 0.0 0.0 0.00 0.00 0.00 51 1005.5
20260508132351 49 219 0.0 0.0 0.00 0.00 0.00 52 1005.5
20260508131826 48 219 0.0 0.0 0.00 0.00 0.00 51 1005.6
20260508131323 48 207 0.0 0.0 0.00 0.00 0.00 53 1005.5
20260508130840 47 203 0.0 0.0 0.00 0.00 0.00 54 1005.6
20260508130327 47 244 0.0 0.0 0.00 0.00 0.00 59 1005.7
20260508125853 46 244 0.0 0.0 0.00 0.00 0.00 60 1005.7
20260508125317 46 244 0.0 0.0 0.00 0.00 0.00 66 1005.7
20260508124854 45 244 0.0 0.0 0.00 0.00 0.00 69 1005.7
20260508124334 44 244 0.0 0.0 0.00 0.00 0.00 70 1005.7
20260508123830 43 244 0.0 0.0 0.00 0.00 0.00 74 1005.7
20260508123315 43 244 0.0 0.0 0.00 0.00 0.00 76 1005.7
20260508122829 42 244 0.0 0.0 0.00 0.00 0.00 77 1005.7
20260508122316 41 244 0.0 0.0 0.00 0.00 0.00 77 1005.6
20260508121827 41 244 0.0 0.0 0.00 0.00 0.00 77 1005.6
20260508121331 40 244 0.0 0.0 0.00 0.00 0.00 76 1005.6